Location: Karcze
(52.0945°N, 22.4786°E)
Time: 12:06:59
(UTC+00:00)

Cosmos 2242 Rocket - Pass Details

Date: 14 July 2020
Orbit: 618 x 651 km, 82.5° (Epoch: 07 August)

Event Time Altitude Azimuth Distance (km) Brightness Sun altitude
Rises 00:02:07 0° 344° (NNW) 2,983 8.0 -13.9°
Reaches altitude 10° 00:04:28 10° 337° (NNW) 2,064 6.9 -13.8°
Maximum altitude 00:08:46 42° 268° (W) 928 4.3 -13.5°
Enters shadow 00:11:24 21° 208° (SSW) 1,453 4.8 -13.4°
